Simultaneous Nadir Overpasses (SNOs) Predictions

Prediction of SNOs between NPP and TERRA Satellite Orbit:

Table of predicted SNOs for the next 14.0 days since TLE Epoch: 1/2/2021
Index Date (NPP) Time (NPP) Lat,Lon (NPP) SZA (NPP ) Date (TERRA) Time (TERRA) Lat,Lon (TERRA) SZA (TERRA ) Distance(km) Time Diff (sec)
1 01/03/2021 02:55:44 -68.40, -45.44 88.89 01/03/2021 02:56:20 -68.40, -45.40 88.89 1.53 36
2 01/03/2021 03:46:27 68.23, 122.10 90.93 01/03/2021 03:45:48 68.24, 122.05 90.95 2.69 39
3 01/05/2021 18:22:04 68.83, -97.56 91.27 01/05/2021 18:23:15 68.69, -96.80 91.11 34.11 71
4 01/05/2021 19:12:39 -68.37, 70.38 89.21 01/05/2021 19:12:49 -68.36, 70.43 89.22 2.15 10
5 01/05/2021 20:03:22 68.19,-122.09 90.61 01/05/2021 20:02:17 68.19,-122.13 90.61 1.64 65
6 01/08/2021 10:38:52 68.43, 18.75 90.52 01/08/2021 10:39:48 68.42, 18.74 90.50 1.26 56
7 01/08/2021 11:29:34 -68.33,-173.81 89.59 01/08/2021 11:29:18 -68.31,-173.76 89.61 3.38 16
8 01/08/2021 12:20:05 67.51, -5.48 89.58 01/08/2021 12:18:56 67.58, -6.96 89.67 63.12 69
9 01/11/2021 02:55:47 68.40, 134.55 90.10 01/11/2021 02:56:16 68.41, 134.61 90.11 2.93 29
10 01/11/2021 03:46:28 -68.25, -57.93 90.06 01/11/2021 03:45:47 -68.26, -57.94 90.05 0.94 41
11 01/13/2021 18:22:02 -68.75, 82.55 89.98 01/13/2021 18:23:14 -68.64, 83.12 90.11 26.18 72
12 01/13/2021 19:12:40 68.32,-109.58 89.58 01/13/2021 19:12:44 68.35,-109.58 89.61 3.26 4
13 01/13/2021 20:03:22 -68.22, 57.87 90.54 01/13/2021 20:02:15 -68.19, 57.86 90.56 2.76 67



Historial Predications of SNOs between NPP and TERRA
